Location: Newark
(43.0117°N, 7.5572°W)
Time: 20:32:23
(UTC+00:00)

X-37B - Pass Details

Date: 01 October 2020
Orbit: 382 x 392 km, 45.0° (Epoch: 15 October)

Event Time Altitude Azimuth Distance (km) Brightness Sun altitude
Rises 20:03:35 0° 227° (SW) 2,253 4.9 -21.3°
Reaches altitude 10° 20:05:45 10° 217° (SW) 1,400 3.6 -21.6°
Enters shadow 20:06:30 15° 210° (SSW) 1,130 3.1 -21.8°
